This is the latest recevied weather packets stored in our database for station/object KD5VOO. If no packets are shown the sender has not sent any weather packets the latest 10 day(s).
| Time | Temp. | Humidity | Pressure | Rain* | Wind** | Luminosity | Snow |
|---|---|---|---|---|---|---|---|
| 1777660316 | 16.67° C | 77% | 1008.8 hPa | 5.33 mm | - | 5 W/m² | - |
| 1777660012 | 16.67° C | 76% | 1008.2 hPa | 3.56 mm | - | 12 W/m² | - |
| 1777659709 | 16.67° C | 76% | 1008.8 hPa | 3.56 mm | - | 11 W/m² | - |
| 1777659406 | 16.67° C | 76% | 1008.8 hPa | 1.78 mm | - | 17 W/m² | - |
| 1777659103 | 16.67° C | 76% | 1008.8 hPa | 0 mm | - | 7 W/m² | - |
| 1777658801 | 16.67° C | 77% | 1008.8 hPa | 0 mm | - | 5 W/m² | - |
| 1777658497 | 16.67° C | 77% | 1008.2 hPa | 0 mm | - | 28 W/m² | - |
| 1777658194 | 16.67° C | 77% | 1008.2 hPa | 0 mm | - | 22 W/m² | - |
| 1777657891 | 16.67° C | 77% | 1008.5 hPa | 0 mm | - | 20 W/m² | - |
| 1777657588 | 16.67° C | 77% | 1008.8 hPa | 0 mm | - | 19 W/m² | - |
| 1777656983 | 16.67° C | 77% | 1009.9 hPa | 0 mm | - | 11 W/m² | - |
| 1777656679 | 17.22° C | 77% | 1009.5 hPa | 0 mm | - | 27 W/m² | - |
| 1777656375 | 17.22° C | 77% | 1009.5 hPa | 0 mm | - | 22 W/m² | - |
| 1777656070 | 17.22° C | 77% | 1009.2 hPa | 0 mm | - | 23 W/m² | - |
| 1777655767 | 17.22° C | 78% | 1009.9 hPa | 0 mm | - | 27 W/m² | - |
| 1777655464 | 17.22° C | 78% | 1009.9 hPa | 0 mm | - | 29 W/m² | - |
| 1777655161 | 17.22° C | 78% | 1009.2 hPa | 0 mm | - | 38 W/m² | - |
| 1777654252 | 17.22° C | 78% | 1010.2 hPa | 0 mm | - | 36 W/m² | - |
| 1777653647 | 17.22° C | 78% | 1010.5 hPa | 0 mm | - | 45 W/m² | - |
| 1777653343 | 17.22° C | 78% | 1010.5 hPa | 0 mm | - | 32 W/m² | - |
| 1777652433 | 17.22° C | 78% | 1010.5 hPa | 0 mm | - | 52 W/m² | - |
| 1777652131 | 17.22° C | 78% | 1010.2 hPa | 0 mm | - | 51 W/m² | - |
| 1777651827 | 17.22° C | 78% | 1010.5 hPa | 0 mm | - | 33 W/m² | - |
| 1777651221 | 17.22° C | 78% | 1009.9 hPa | 1.78 mm | - | 37 W/m² | - |
| 1777650615 | 17.22° C | 78% | 1010.9 hPa | 0 mm | - | 31 W/m² | - |
* Rain latest hour (hover to see other rain measurements)
** Current wind speed in m/s (hover to see current wind gust speed)